QPF
0.07 0.04 0.03 0.07 0.12 0.11 0.04 0.01 0.01 0.01 0.00 0.00 0.00 0.00 0.00 0.00 0.00 0.00 0.00 0.00 0.00 0.00 0.00 0.00 0.00 0.00 0.00 0.00 0.00 0.00 0.00 0.00 0.00 0.00 0.00 0.00 0.00 0.00 0.00 0.00 0.00 0.00 0.00
0.07 0.06 0.02 0.05 0.09 0.06 0.06 0.02 0.01 0.01 0.00 0.00 0.00 0.00 0.00 0.00 0.00 0.00 0.00 0.00 0.00 0.00 0.00 0.00 0.00 0.00 0.00 0.00 0.00 0.00 0.00 0.00 0.00 0.00 0.00 0.00 0.00 0.00 0.00 0.00 0.00 0.00 0.00
0.07 0.07 0.02 0.01 0.02 0.02 0.02 0.04 0.03 0.01 0.00 0.00 0.00 0.00 0.00 0.00 0.00 0.00 0.00 0.00 0.00 0.00 0.00 0.00 0.00 0.00 0.00 0.00 0.00 0.00 0.00 0.00 0.00 0.00 0.00 0.00 0.00 0.00 0.00 0.00 0.00 0.00 0.00
0.06 0.07 0.02 0.01 0.02 0.02 0.01 0.01 0.02 0.01 0.00 0.00 0.00 0.00 0.00 0.00 0.00 0.00 0.00 0.00 0.00 0.00 0.00 0.00 0.00 0.00 0.00 0.00 0.00 0.00 0.00 0.00 0.00 0.00 0.00 0.00 0.00 0.00 0.00 0.00 0.00 0.00 0.00
0.05 0.07 0.04 0.01 0.02 0.02 0.02 0.02 0.04 0.03 0.01 0.00 0.00 0.00 0.00 0.00 0.00 0.00 0.00 0.00 0.00 0.00 0.00 0.00 0.00 0.00 0.00 0.00 0.00 0.00 0.00 0.00 0.00 0.00 0.00 0.00 0.00 0.00 0.00 0.00 0.00 0.00 0.00
0.07 0.07 0.05 0.02 0.02 0.02 0.02 0.03 0.03 0.03 0.02 0.01 0.00 0.00 0.00 0.00 0.00 0.00 0.00 0.00 0.00 0.00 0.00 0.00 0.00 0.00 0.00 0.00 0.00 0.00 0.00 0.00 0.00 0.00 0.00 0.00 0.00 0.00 0.00 0.00 0.00 0.00 0.00
0.05 0.05 0.05 0.04 0.03 0.01 0.01 0.04 0.02 0.02 0.01 0.01 0.00 0.00 0.00 0.00 0.00 0.00 0.00 0.00 0.00 0.00 0.00 0.00 0.00 0.00 0.00 0.00 0.00 0.00 0.00 0.00 0.00 0.00 0.00 0.00 0.00 0.00 0.00 0.00 0.00 0.00 0.00
0.05 0.05 0.07 0.06 0.03 0.02 0.01 0.02 0.01 0.01 0.00 0.00 0.01 0.00 0.00 0.00 0.00 0.00 0.00 0.00 0.00 0.00 0.00 0.00 0.00 0.00 0.00 0.00 0.00 0.00 0.00 0.00 0.00 0.00 0.00 0.00 0.00 0.00 0.00 0.00 0.00 0.00 0.00
0.04 0.05 0.08 0.07 0.03 0.02 0.01 0.01 0.01 0.00 0.00 0.00 0.00 0.00 0.00 0.00 0.00 0.00 0.00 0.00 0.00 0.00 0.00 0.00 0.00 0.00 0.00 0.00 0.00 0.00 0.00 0.00 0.00 0.00 0.00 0.00 0.00 0.00 0.00 0.00 0.00 0.00 0.00
0.02 0.04 0.08 0.08 0.03 0.02 0.00 0.00 0.01 0.00 0.00 0.00 0.00 0.00 0.00 0.00 0.00 0.00 0.00 0.00 0.00 0.00 0.00 0.00 0.00 0.00 0.00 0.00 0.00 0.00 0.00 0.00 0.00 0.00 0.00 0.00 0.00 0.00 0.00 0.00 0.00 0.00 0.00
0.03 0.03 0.06 0.05 0.03 0.01 0.00 0.00 0.00 0.01 0.00 0.00 0.00 0.00 0.00 0.00 0.00 0.00 0.00 0.00 0.00 0.00 0.00 0.00 0.00 0.00 0.00 0.00 0.00 0.00 0.00 0.00 0.00 0.00 0.00 0.00 0.00 0.00 0.00 0.00 0.00 0.00 0.00
0.08 0.04 0.04 0.06 0.05 0.02 0.01 0.01 0.00 0.01 0.00 0.00 0.00 0.00 0.00 0.00 0.00 0.00 0.01 0.00 0.00 0.00 0.00 0.00 0.00 0.00 0.00 0.00 0.00 0.00 0.00 0.00 0.00 0.00 0.00 0.00 0.00 0.00 0.00 0.00 0.00 0.00 0.00
0.08 0.06 0.06 0.07 0.05 0.04 0.02 0.01 0.01 0.01 0.00 0.00 0.00 0.00 0.01 0.01 0.01 0.01 0.02 0.00 0.00 0.00 0.00 0.00 0.00 0.00 0.00 0.00 0.00 0.00 0.00 0.00 0.00 0.00 0.00 0.00 0.00 0.00 0.00 0.00 0.00 0.00 0.00
0.07 0.08 0.05 0.06 0.07 0.05 0.02 0.01 0.00 0.00 0.01 0.02 0.01 0.01 0.02 0.01 0.03 0.00 0.00 0.00 0.00 0.00 0.00 0.00 0.00 0.00 0.00 0.00 0.00 0.00 0.00 0.00 0.00 0.00 0.00 0.00 0.00 0.00 0.00 0.00 0.00 0.00 0.00
0.03 0.09 0.07 0.03 0.05 0.06 0.04 0.02 0.00 0.00 0.01 0.01 0.03 0.03 0.02 0.01 0.02 0.01 0.00 0.00 0.01 0.02 0.00 0.00 0.00 0.00 0.00 0.00 0.00 0.00 0.00 0.00 0.00 0.00 0.00 0.00 0.00 0.00 0.00 0.00 0.00 0.00 0.00
0.01 0.03 0.08 0.09 0.03 0.02 0.03 0.03 0.02 0.02 0.02 0.01 0.02 0.04 0.04 0.03 0.02 0.01 0.01 0.00 0.00 0.00 0.01 0.00 0.00 0.00 0.00 0.00 0.00 0.00 0.00 0.00 0.00 0.00 0.00 0.00 0.00 0.00 0.00 0.00 0.00 0.00 0.00
0.00 0.00 0.05 0.09 0.05 0.02 0.02 0.03 0.02 0.01 0.02 0.01 0.01 0.01 0.01 0.02 0.02 0.01 0.00 0.00 0.00 0.00 0.00 0.00 0.00 0.00 0.00 0.00 0.00 0.00 0.00 0.00 0.00 0.00 0.00 0.00 0.00 0.00 0.00 0.00 0.00 0.00 0.00
0.00 0.00 0.00 0.03 0.05 0.02 0.01 0.01 0.02 0.01 0.01 0.01 0.00 0.00 0.00 0.00 0.01 0.00 0.00 0.00 0.00 0.00 0.00 0.01 0.03 0.01 0.00 0.00 0.00 0.00 0.00 0.00 0.00 0.00 0.00 0.00 0.00 0.00 0.00 0.00 0.00 0.00 0.00
0.00 0.00 0.00 0.00 0.02 0.03 0.03 0.01 0.01 0.02 0.02 0.01 0.00 0.00 0.00 0.00 0.00 0.01 0.00 0.00 0.00 0.00 0.00 0.00 0.00 0.03 0.01 0.00 0.00 0.00 0.00 0.00 0.00 0.00 0.00 0.00 0.00 0.00 0.00 0.00 0.00 0.00 0.00
0.00 0.00 0.00 0.00 0.00 0.00 0.01 0.01 0.02 0.02 0.04 0.03 0.01 0.01 0.01 0.00 0.00 0.00 0.00 0.00 0.00 0.00 0.01 0.00 0.00 0.03 0.02 0.00 0.00 0.00 0.00 0.00 0.00 0.00 0.00 0.00 0.00 0.00 0.00 0.00 0.00 0.00 0.00
0.00 0.00 0.00 0.00 0.00 0.00 0.00 0.00 0.00 0.01 0.01 0.01 0.02 0.01 0.01 0.01 0.01 0.01 0.00 0.00 0.00 0.01 0.01 0.01 0.00 0.03 0.03 0.00 0.00 0.00 0.00 0.00 0.00 0.00 0.00 0.00 0.00 0.00 0.00 0.00 0.00 0.00 0.00
0.00 0.00 0.00 0.00 0.00 0.00 0.00 0.00 0.00 0.01 0.02 0.02 0.01 0.01 0.01 0.01 0.01 0.01 0.00 0.00 0.01 0.00 0.00 0.01 0.00 0.01 0.02 0.01 0.00 0.00 0.00 0.00 0.01 0.01 0.01 0.00 0.00 0.00 0.00 0.00 0.00 0.00 0.00
0.00 0.00 0.00 0.00 0.00 0.00 0.00 0.00 0.00 0.00 0.02 0.02 0.02 0.02 0.01 0.01 0.01 0.00 0.00 0.00 0.00 0.00 0.00 0.00 0.00 0.00 0.00 0.01 0.00 0.00 0.00 0.00 0.02 0.02 0.01 0.00 0.00 0.00 0.00 0.00 0.00 0.00 0.00
0.00 0.00 0.00 0.00 0.00 0.00 0.00 0.00 0.00 0.00 0.00 0.02 0.04 0.04 0.04 0.03 0.01 0.01 0.01 0.01 0.00 0.00 0.00 0.00 0.00 0.00 0.00 0.00 0.00 0.00 0.00 0.00 0.00 0.00 0.00 0.00 0.00 0.00 0.00 0.00 0.00 0.00 0.00
0.00 0.00 0.00 0.00 0.00 0.00 0.00 0.00 0.00 0.00 0.00 0.01 0.03 0.03 0.02 0.03 0.03 0.03 0.02 0.02 0.02 0.01 0.00 0.00 0.00 0.00 0.00 0.01 0.01 0.03 0.01 0.00 0.00 0.00 0.00 0.00 0.00 0.00 0.00 0.00 0.00 0.00 0.00
0.00 0.00 0.00 0.00 0.00 0.00 0.00 0.00 0.00 0.00 0.00 0.01 0.02 0.04 0.03 0.02 0.03 0.05 0.03 0.03 0.02 0.01 0.01 0.00 0.00 0.00 0.00 0.00 0.01 0.01 0.02 0.02 0.01 0.00 0.00 0.00 0.00 0.00 0.00 0.00 0.00 0.00 0.00
MSLP
1015.41 1016.08 1016.26 1016.68 1016.71 1016.95 1017.09 1017.76 1018.25 1018.63 1019.19 1019.25 1019.68 1019.92 1020.12 1020.26 1020.56 1020.72 1021.98 1023.08 1023.33 1023.54 1023.82 1024.17 1024.61 1024.98 1025.32 1025.62 1025.96 1026.23 1026.53 1026.69 1027.03 1027.31 1027.53 1027.79 1027.96 1028.18 1028.48 1028.71 1028.91 1029.02 1029.09
1014.98 1015.63 1015.97 1016.33 1016.31 1016.64 1016.79 1017.30 1018.20 1018.84 1019.28 1019.36 1019.74 1020.11 1020.32 1020.51 1020.74 1021.08 1021.86 1023.03 1023.50 1023.68 1024.00 1024.27 1024.67 1025.04 1025.37 1025.73 1026.05 1026.28 1026.56 1026.89 1027.18 1027.50 1027.80 1028.08 1028.33 1028.54 1028.77 1028.97 1029.13 1029.26 1029.38
1014.61 1015.29 1015.22 1016.23 1016.59 1016.87 1017.09 1017.44 1018.30 1019.01 1019.52 1019.82 1019.87 1020.16 1020.35 1020.65 1020.95 1021.38 1021.78 1022.46 1023.42 1023.92 1024.17 1024.35 1024.76 1025.05 1025.33 1025.73 1026.05 1026.30 1026.58 1026.88 1027.26 1027.63 1027.97 1028.23 1028.52 1028.79 1028.92 1029.08 1029.24 1029.43 1029.64
1014.26 1014.89 1015.41 1015.91 1016.15 1016.50 1017.26 1017.86 1018.50 1019.10 1019.74 1019.66 1019.99 1020.07 1020.15 1020.52 1020.93 1021.40 1021.53 1022.01 1022.62 1023.16 1024.27 1024.51 1024.81 1025.10 1025.39 1025.72 1026.06 1026.34 1026.63 1027.00 1027.32 1027.74 1028.05 1028.35 1028.66 1028.90 1029.10 1029.25 1029.40 1029.60 1029.83
1013.97 1014.43 1014.95 1014.99 1016.12 1016.57 1017.13 1017.82 1018.54 1019.01 1019.34 1019.76 1019.83 1020.06 1020.05 1020.27 1020.92 1021.26 1021.59 1021.84 1022.19 1022.62 1023.26 1024.50 1024.89 1025.18 1025.45 1025.71 1025.96 1026.26 1026.63 1026.97 1027.35 1027.69 1028.04 1028.39 1028.64 1028.86 1029.14 1029.36 1029.56 1029.76 1029.97
1013.75 1014.04 1014.71 1014.94 1015.80 1016.37 1016.94 1017.66 1018.42 1019.14 1019.22 1019.67 1019.99 1020.45 1020.38 1020.38 1020.68 1021.12 1021.47 1021.80 1022.23 1022.48 1022.82 1023.80 1024.48 1024.82 1025.33 1025.64 1025.82 1026.05 1026.43 1026.82 1027.16 1027.48 1027.89 1028.27 1028.61 1028.94 1029.28 1029.47 1029.65 1029.83 1030.00
1013.48 1013.84 1014.14 1014.68 1015.19 1015.98 1016.62 1017.13 1018.09 1018.88 1019.34 1019.89 1020.42 1020.93 1021.40 1021.24 1021.17 1021.09 1021.15 1021.53 1022.10 1022.46 1022.72 1023.19 1023.51 1023.80 1024.92 1025.45 1025.66 1025.84 1026.08 1026.51 1026.94 1027.31 1027.71 1028.06 1028.42 1028.79 1029.24 1029.50 1029.63 1029.79 1029.94
1012.90 1013.44 1013.69 1014.36 1014.93 1015.55 1016.54 1016.76 1017.43 1017.86 1018.79 1019.38 1019.68 1020.69 1021.52 1022.12 1021.75 1021.21 1020.97 1021.29 1021.70 1021.98 1022.44 1022.87 1023.12 1023.48 1023.65 1024.45 1024.96 1025.58 1025.74 1026.10 1026.56 1026.96 1027.37 1027.83 1028.22 1028.64 1029.02 1029.37 1029.52 1029.66 1029.78
1012.40 1012.83 1013.34 1013.63 1014.16 1015.13 1015.76 1016.08 1016.66 1017.20 1017.85 1018.76 1019.01 1018.96 1020.22 1020.46 1020.90 1021.23 1021.12 1021.05 1021.45 1021.64 1021.88 1022.42 1022.92 1023.10 1023.28 1023.34 1024.08 1025.07 1025.48 1025.73 1026.10 1026.50 1026.99 1027.48 1027.91 1028.27 1028.63 1028.97 1029.23 1029.46 1029.70
1011.72 1012.17 1012.72 1013.05 1013.52 1013.47 1015.08 1015.34 1016.07 1016.61 1016.99 1017.61 1018.40 1018.30 1018.45 1018.76 1018.94 1020.32 1020.97 1020.80 1021.07 1021.27 1021.48 1021.62 1022.18 1022.60 1022.92 1023.12 1023.36 1023.90 1024.87 1025.45 1025.71 1026.01 1026.49 1026.99 1027.45 1027.84 1028.13 1028.49 1028.90 1029.19 1029.48
1011.23 1011.57 1012.01 1012.69 1013.10 1013.82 1014.19 1014.81 1015.30 1016.03 1016.42 1016.79 1017.20 1017.85 1018.16 1018.20 1017.88 1017.80 1018.97 1020.13 1020.75 1020.56 1020.75 1021.05 1021.10 1021.77 1022.24 1022.58 1022.77 1023.40 1024.31 1024.93 1025.39 1025.69 1025.98 1026.36 1026.85 1027.28 1027.64 1027.92 1028.33 1028.67 1028.87
1011.21 1011.32 1011.52 1012.16 1012.40 1013.24 1013.32 1014.35 1014.65 1015.21 1015.86 1016.13 1016.48 1017.08 1017.15 1017.44 1017.75 1017.48 1017.59 1018.62 1019.32 1019.58 1019.80 1020.15 1020.78 1020.83 1021.24 1021.78 1022.19 1022.69 1023.69 1024.42 1024.93 1025.31 1025.67 1025.99 1026.33 1026.75 1027.14 1027.44 1027.77 1028.01 1028.35
1012.09 1011.07 1011.42 1011.63 1012.12 1012.71 1013.12 1013.57 1014.14 1014.70 1015.04 1015.31 1015.68 1015.98 1016.68 1017.01 1017.37 1017.36 1017.28 1017.47 1017.76 1018.02 1018.98 1019.53 1019.66 1020.04 1020.31 1020.84 1021.31 1022.26 1023.08 1023.73 1024.30 1024.74 1025.15 1025.50 1025.83 1026.18 1026.57 1026.87 1027.20 1027.44 1027.73
1013.18 1012.22 1010.97 1011.32 1011.73 1012.21 1012.74 1012.70 1013.12 1013.98 1014.30 1014.73 1015.32 1015.39 1015.97 1016.38 1016.68 1016.85 1016.65 1017.13 1017.23 1017.20 1017.73 1017.89 1018.37 1018.83 1019.27 1019.75 1020.26 1021.38 1021.95 1023.04 1023.67 1024.18 1024.57 1024.94 1025.27 1025.66 1025.97 1026.30 1026.59 1026.86 1027.10
1013.36 1012.53 1011.75 1010.60 1011.11 1011.61 1011.41 1012.32 1012.10 1013.25 1013.84 1014.22 1014.68 1015.15 1015.48 1015.59 1015.70 1016.27 1016.13 1016.30 1016.91 1017.29 1016.03 1016.45 1016.96 1017.78 1018.41 1018.99 1019.63 1020.58 1021.26 1021.89 1022.83 1023.43 1023.86 1024.21 1024.59 1025.02 1025.33 1025.60 1025.93 1026.31 1026.51
1013.94 1012.75 1011.70 1010.38 1010.38 1010.83 1011.39 1011.58 1011.90 1012.37 1012.83 1013.39 1013.76 1014.28 1014.67 1015.02 1015.34 1015.84 1015.96 1015.96 1016.67 1017.08 1016.69 1015.79 1016.19 1016.68 1017.76 1018.14 1018.81 1019.73 1020.17 1020.83 1021.70 1022.34 1022.91 1023.31 1023.76 1024.16 1024.56 1024.82 1025.19 1025.58 1025.85
1013.85 1012.89 1011.97 1011.21 1009.94 1010.34 1010.88 1011.11 1010.73 1011.22 1011.78 1012.50 1012.95 1013.42 1013.85 1014.27 1014.65 1015.33 1016.05 1016.14 1016.42 1016.77 1017.15 1016.61 1016.05 1016.55 1017.58 1017.80 1018.06 1019.14 1019.50 1019.93 1020.35 1021.39 1021.92 1022.39 1023.00 1023.28 1023.73 1024.04 1024.26 1024.72 1025.15
1014.12 1013.18 1012.44 1011.50 1010.35 1009.55 1010.25 1010.61 1010.79 1010.92 1011.24 1011.37 1012.03 1012.78 1013.06 1013.67 1014.06 1014.75 1015.23 1015.83 1016.21 1016.54 1017.03 1016.98 1016.21 1016.21 1017.14 1017.39 1017.56 1018.33 1018.61 1018.71 1018.95 1019.82 1020.75 1021.41 1022.10 1022.40 1022.82 1023.21 1023.43 1023.83 1024.22
1014.16 1013.43 1012.53 1011.84 1010.86 1009.62 1009.40 1010.05 1010.35 1010.42 1010.71 1010.69 1011.22 1011.73 1012.09 1012.98 1013.38 1013.73 1014.23 1014.92 1015.71 1016.20 1016.64 1016.76 1016.45 1016.16 1016.23 1016.66 1017.08 1017.60 1017.82 1017.88 1018.16 1018.43 1019.64 1020.38 1021.10 1021.40 1021.96 1022.29 1022.53 1022.85 1023.39
1014.18 1013.38 1013.16 1012.54 1011.73 1010.65 1009.95 1009.29 1009.65 1010.18 1010.38 1010.66 1010.60 1010.74 1010.89 1011.93 1012.51 1012.95 1013.55 1014.15 1015.09 1015.61 1015.95 1016.02 1016.19 1015.85 1015.71 1016.05 1016.31 1016.46 1017.10 1017.13 1017.24 1017.47 1018.60 1019.00 1019.92 1020.36 1021.21 1021.41 1021.78 1022.03 1022.40
1014.57 1013.73 1013.30 1012.61 1011.86 1011.19 1011.63 1011.03 1010.06 1009.85 1009.83 1009.75 1010.47 1011.13 1010.31 1010.89 1011.48 1011.93 1012.46 1013.31 1014.12 1014.39 1014.56 1014.81 1014.93 1015.19 1015.06 1015.14 1015.32 1015.44 1015.75 1016.00 1016.29 1016.46 1016.96 1017.57 1018.25 1018.80 1019.56 1020.37 1020.45 1020.86 1021.21
1014.73 1013.87 1013.44 1013.12 1012.33 1011.93 1012.25 1011.46 1011.33 1010.35 1009.57 1009.37 1008.73 1009.46 1009.83 1009.92 1010.57 1011.04 1011.20 1011.82 1012.52 1012.98 1013.38 1013.60 1013.78 1013.99 1013.95 1013.82 1014.28 1014.41 1014.66 1015.05 1014.76 1015.38 1015.80 1016.06 1016.60 1017.05 1017.39 1017.85 1018.08 1018.92 1019.70
1015.05 1014.29 1013.89 1013.62 1013.05 1012.89 1012.53 1011.83 1011.15 1010.19 1009.23 1008.44 1008.26 1008.70 1009.10 1009.14 1009.86 1010.26 1010.67 1010.95 1011.18 1011.68 1012.01 1012.51 1012.55 1012.85 1012.92 1012.48 1012.84 1013.40 1013.58 1013.72 1013.71 1014.01 1015.19 1015.07 1015.46 1016.00 1016.01 1016.27 1016.66 1017.49 1018.41
1015.28 1014.78 1014.41 1014.21 1013.84 1013.42 1013.04 1011.87 1010.51 1009.28 1008.47 1007.97 1007.71 1008.06 1008.23 1008.11 1008.27 1008.90 1009.45 1010.14 1010.40 1010.53 1011.11 1011.63 1011.64 1011.74 1011.73 1011.44 1011.85 1012.47 1012.63 1013.11 1013.91 1014.53 1014.58 1014.11 1014.64 1015.08 1015.02 1015.14 1015.82 1016.76 1017.53
1015.57 1015.04 1014.75 1014.59 1014.39 1013.80 1013.14 1012.06 1010.72 1009.52 1008.60 1007.92 1007.15 1007.18 1007.05 1007.22 1007.36 1007.82 1008.93 1008.77 1009.02 1009.31 1009.74 1010.25 1010.52 1010.78 1010.79 1011.29 1011.07 1011.69 1012.05 1012.66 1013.15 1013.54 1014.17 1013.81 1013.61 1014.44 1014.47 1014.62 1015.04 1016.10 1016.64
1016.25 1015.56 1015.01 1014.87 1014.64 1014.18 1013.34 1012.13 1011.15 1010.28 1009.52 1008.83 1007.95 1007.19 1006.89 1007.00 1007.18 1007.27 1008.08 1007.95 1008.08 1007.90 1008.53 1009.26 1010.09 1010.49 1010.41 1010.45 1011.08 1011.17 1011.17 1011.31 1011.49 1011.88 1012.23 1013.17 1013.26 1013.98 1014.60 1014.45 1014.25 1015.15 1016.02
Thickness
5677 5666 5668 5669 5669 5674 5675 5674 5675 5676 5674 5676 5676 5678 5679 5682 5683 5684 5677 5672 5672 5672 5672 5671 5670 5669 5667 5665 5663 5661 5660 5658 5655 5652 5649 5646 5643 5640 5636 5633 5629 5626 5623
5677 5672 5670 5669 5670 5672 5674 5673 5671 5670 5671 5673 5673 5673 5675 5677 5678 5678 5675 5669 5669 5669 5669 5669 5668 5667 5666 5664 5662 5660 5658 5657 5654 5651 5648 5645 5641 5638 5634 5631 5628 5624 5620
5677 5672 5670 5666 5664 5667 5668 5669 5667 5665 5665 5666 5669 5669 5671 5672 5673 5673 5672 5670 5666 5666 5666 5667 5666 5665 5665 5663 5661 5660 5658 5656 5653 5650 5646 5643 5640 5636 5633 5631 5627 5623 5617
5677 5672 5669 5664 5664 5665 5663 5663 5662 5661 5660 5665 5665 5666 5668 5669 5669 5669 5671 5670 5669 5668 5663 5664 5663 5663 5662 5662 5660 5659 5657 5655 5652 5648 5645 5642 5638 5635 5632 5629 5625 5620 5615
5673 5673 5667 5666 5661 5660 5660 5659 5658 5658 5658 5660 5662 5662 5664 5666 5665 5666 5667 5669 5669 5669 5667 5662 5661 5660 5660 5660 5660 5658 5656 5654 5651 5647 5644 5640 5637 5634 5630 5627 5623 5618 5612
5667 5669 5665 5660 5658 5658 5658 5656 5653 5651 5655 5654 5655 5654 5658 5660 5662 5663 5663 5665 5665 5666 5667 5663 5661 5660 5659 5658 5658 5658 5656 5653 5650 5647 5643 5640 5636 5632 5628 5625 5620 5616 5610
5662 5663 5664 5661 5655 5654 5655 5653 5648 5647 5647 5646 5645 5644 5644 5650 5654 5659 5661 5662 5661 5662 5664 5664 5664 5664 5658 5657 5657 5657 5656 5653 5650 5646 5643 5640 5636 5632 5627 5623 5619 5615 5609
5659 5658 5660 5657 5653 5649 5646 5650 5647 5648 5644 5644 5645 5639 5634 5635 5645 5653 5659 5660 5660 5660 5661 5662 5663 5662 5663 5660 5658 5656 5655 5653 5650 5647 5644 5640 5636 5631 5626 5621 5618 5614 5609
5654 5655 5654 5656 5655 5650 5648 5649 5646 5646 5643 5641 5644 5646 5637 5640 5645 5647 5652 5656 5657 5658 5660 5660 5660 5661 5662 5663 5661 5656 5655 5654 5651 5648 5644 5640 5635 5631 5626 5622 5618 5613 5609
5652 5653 5652 5653 5656 5653 5645 5649 5646 5642 5643 5642 5641 5646 5649 5652 5650 5638 5645 5652 5654 5655 5657 5660 5659 5659 5660 5660 5661 5660 5656 5653 5652 5649 5645 5640 5636 5631 5627 5623 5618 5613 5608
5647 5650 5650 5650 5652 5648 5648 5647 5645 5641 5640 5642 5642 5643 5645 5651 5657 5659 5650 5647 5649 5655 5658 5659 5661 5660 5660 5660 5660 5659 5656 5653 5651 5649 5646 5642 5637 5632 5628 5624 5619 5615 5610
5639 5644 5647 5647 5643 5643 5644 5641 5643 5641 5638 5638 5641 5641 5645 5647 5647 5656 5658 5653 5649 5655 5659 5660 5659 5662 5662 5661 5660 5659 5655 5652 5650 5648 5645 5641 5637 5633 5628 5624 5620 5616 5611
5620 5637 5639 5642 5642 5640 5639 5639 5638 5638 5637 5637 5639 5641 5641 5643 5645 5650 5652 5653 5656 5661 5658 5660 5662 5662 5663 5661 5661 5657 5654 5652 5650 5647 5643 5640 5637 5633 5628 5624 5620 5616 5612
5600 5615 5634 5635 5637 5637 5635 5639 5641 5636 5636 5634 5632 5635 5638 5639 5641 5645 5649 5648 5650 5657 5660 5664 5666 5665 5664 5663 5662 5659 5655 5651 5649 5646 5642 5639 5637 5633 5629 5625 5620 5617 5612
5589 5602 5615 5632 5631 5632 5636 5636 5641 5633 5631 5631 5631 5631 5633 5638 5643 5641 5647 5650 5646 5642 5664 5668 5667 5665 5664 5663 5661 5657 5654 5653 5649 5646 5643 5640 5637 5633 5630 5627 5622 5617 5613
5573 5589 5604 5622 5627 5629 5626 5633 5631 5633 5632 5632 5633 5631 5633 5633 5636 5635 5639 5645 5643 5644 5647 5666 5667 5668 5661 5662 5660 5656 5655 5653 5652 5648 5644 5641 5638 5634 5631 5629 5623 5618 5614
5562 5577 5589 5602 5619 5624 5624 5627 5630 5634 5634 5631 5632 5631 5632 5632 5631 5631 5629 5634 5636 5639 5639 5651 5660 5661 5655 5656 5656 5652 5652 5651 5651 5649 5645 5642 5637 5635 5631 5629 5625 5620 5615
5547 5562 5575 5590 5607 5619 5618 5618 5623 5623 5629 5631 5630 5627 5629 5627 5627 5626 5625 5624 5629 5631 5632 5635 5650 5652 5647 5650 5652 5650 5651 5652 5653 5651 5646 5642 5638 5635 5632 5629 5626 5621 5618
5533 5548 5562 5574 5590 5606 5614 5613 5614 5618 5621 5626 5627 5628 5628 5623 5623 5623 5622 5622 5622 5624 5626 5630 5635 5643 5646 5646 5647 5645 5648 5650 5649 5652 5647 5641 5637 5635 5633 5629 5627 5624 5619
5520 5535 5544 5556 5570 5584 5594 5606 5608 5609 5612 5615 5617 5624 5627 5622 5622 5620 5616 5618 5618 5618 5621 5625 5626 5633 5639 5641 5642 5641 5641 5645 5647 5646 5641 5639 5635 5635 5630 5629 5626 5623 5618
5504 5519 5530 5543 5555 5565 5563 5577 5595 5605 5609 5612 5610 5607 5618 5621 5621 5621 5619 5618 5616 5618 5621 5624 5625 5627 5632 5633 5638 5641 5638 5640 5641 5643 5642 5639 5637 5636 5633 5630 5628 5624 5620
5489 5504 5515 5525 5537 5545 5549 5561 5570 5585 5597 5603 5613 5612 5615 5617 5616 5615 5619 5618 5618 5618 5618 5619 5623 5624 5629 5635 5635 5635 5636 5632 5636 5642 5641 5639 5639 5642 5639 5636 5635 5627 5624
5474 5487 5497 5507 5517 5527 5537 5549 5559 5573 5587 5600 5606 5607 5608 5613 5610 5613 5609 5612 5615 5615 5617 5617 5621 5623 5626 5636 5635 5631 5632 5633 5636 5638 5632 5634 5640 5638 5638 5638 5636 5630 5625
5458 5470 5480 5488 5498 5509 5521 5537 5553 5570 5581 5592 5598 5601 5604 5608 5615 5612 5609 5608 5611 5615 5614 5613 5616 5620 5624 5632 5630 5627 5627 5623 5619 5619 5628 5634 5636 5634 5635 5635 5634 5627 5621
5442 5456 5465 5473 5481 5494 5507 5522 5539 5555 5566 5578 5591 5597 5603 5604 5601 5605 5598 5607 5611 5614 5613 5612 5613 5615 5619 5619 5623 5622 5618 5614 5614 5618 5618 5626 5632 5628 5629 5629 5625 5622 5618
5423 5438 5450 5458 5467 5477 5492 5509 5523 5536 5546 5557 5571 5583 5585 5589 5589 5592 5594 5599 5601 5610 5611 5611 5607 5607 5610 5612 5612 5616 5617 5615 5620 5618 5627 5621 5623 5620 5613 5620 5623 5619 5610